#timestamp,LO_Frequency,Hit,StdDev 
1546812015.3,286047000.6,N
1546812035.1,286046998.1,N
1546812055.8,286046998.2,N
1546812075.7,286046998.1,N
1546812095.5,286046998.9,N
1546812115.3,286046999.0,N
1546812135.2,286046998.1,N
1546812155.0,286047001.1,N
1546812155.9,286047001.1,N
1546812175.8,286047002.6,N
1546812195.6,286047000.9,N
1546812215.4,286047002.2,N
1546812235.3,286047002.7,N
1546812255.1,286047000.4,N
1546812275.8,286047001.2,N
1546812295.7,286047000.4,N
1546812315.5,286046998.4,N
1546812335.4,286047001.1,N
1546812355.2,286047000.0,N
1546812375.0,286046998.5,N
1546812375.9,286046998.5,N
1546812395.8,286047000.6,N
1546812415.6,286047002.2,N
1546812435.4,286047000.6,N
1546812455.3,286046996.5,N
1546812475.1,286046999.5,N
1546812495.9,286047000.0,N
1546812515.7,286046999.1,N
1546812535.5,286046998.5,N
1546812555.4,286046999.3,N
1546812575.2,286046996.7,N
1546812595.0,286046995.3,N
1546812595.9,286046995.3,N
1546812615.8,286046997.5,N
1546812635.6,286046999.5,N
1546812655.5,286046997.4,N
1546812675.3,286046999.3,N
1546812695.1,286046999.3,N
1546812715.9,286046998.9,N
1546812735.7,286046999.0,N
1546812755.5,286046999.3,N
1546812775.4,286047000.7,N
1546812795.2,286047001.1,N
1546812815.1,286046996.9,N
1546812816.0,286046996.9,N
1546812835.8,286046998.1,N
1546812855.6,286046999.7,N
1546812875.5,286046998.2,N
1546812895.3,286046998.2,N
1546812915.2,286046999.1,N
1546812935.9,286046998.9,N
1546812955.7,286046998.5,N
1546812975.6,286046998.4,N
1546812995.4,286046998.3,N
1546813015.3,286047000.7,N
1546813035.1,286047000.6,N
1546813036.0,286047000.6,N
1546813055.8,286047002.8,N
1546813075.7,286046999.8,N
1546813095.5,286047001.2,N
1546813115.3,286046999.2,N
1546813135.2,286046996.9,N
1546813155.0,286046998.1,N
1546813155.9,286046998.1,N
1546813175.8,286046998.7,N
1546813195.6,286047001.0,N
1546813215.4,286047000.2,N
1546813235.3,286046999.1,N
1546813255.1,286046998.3,N
1546813275.9,286047000.9,N
1546813295.7,286046998.6,N
1546813315.5,286046998.6,N
1546813335.4,286047001.2,N
1546813355.2,286046998.5,N
1546813375.1,286046998.4,N
1546813376.0,286046998.4,N
1546813395.8,286047000.3,N
1546813415.6,286047000.4,N
1546813435.5,286047000.5,N
1546813455.3,286047000.3,N
1546813475.2,286047000.8,N
1546813495.9,286047000.6,N
1546813515.7,286047000.4,N
1546813535.6,286046999.8,N
1546813555.4,286047000.5,N
1546813575.2,286047000.8,N
1546813595.1,286047000.7,N
1546813596.0,286047000.7,N
1546813615.8,286046998.4,N
1546813635.7,286046998.9,N
1546813655.5,286046997.7,N
1546813675.3,286046997.3,N
1546813695.2,286046997.3,N
1546813715.0,286046997.7,N
1546813715.9,286046997.7,N
1546813735.8,286046996.3,N
1546813755.6,286046995.7,Y
1546813775.4,286046993.4,P
1546813795.3,286046994.6,N
1546813815.1,286046993.4,N
1546813835.9,286046993.3,N
1546813855.7,286046993.9,N
1546813875.5,286046993.9,N
1546813895.4,286046994.5,N
1546813915.2,286046994.1,Y
1546813935.1,286046998.3,P
1546813936.0,286046998.3,N
1546813955.8,286047001.1,N
1546813975.6,286046996.7,N
1546813995.5,286046999.2,N
1546814015.3,286046997.0,N
1546814035.1,286046995.6,N
1546814055.9,286046993.8,Y
1546814075.7,286046995.0,P
1546814095.6,286046996.6,N
1546814115.4,286046999.4,N
1546814135.2,286047001.2,N
1546814155.1,286047001.1,N
1546814156.0,286047001.1,N
1546814175.8,286047001.0,N
1546814195.6,286046999.4,N
1546814215.5,286046999.1,N
1546814235.3,286046998.7,N
1546814255.2,286046999.3,N
1546814275.9,286046999.6,N
1546814295.7,286046999.1,N
1546814315.6,286046996.8,N
1546814335.4,286046996.7,N
1546814355.3,286046999.2,N
1546814375.1,286046996.5,N
1546814376.0,286046996.5,N
1546814395.8,286046997.4,N
1546814415.7,286046997.5,N
1546814435.5,286046994.9,N
1546814455.3,286046995.3,N
1546814475.2,286046998.0,N
1546814495.0,286046997.9,N
1546814495.9,286046997.9,N
1546814515.8,286046997.5,N
1546814535.6,286046999.5,N
1546814555.4,286046995.0,N
1546814575.3,286046995.3,N
1546814595.1,286046996.2,N
1546814615.8,286046995.4,N
1546814635.7,286046995.4,N
1546814655.5,286046999.6,N
1546814675.4,286046999.5,N
1546814695.2,286046997.2,N
1546814715.0,286046997.7,N
1546814715.9,286046997.7,N
1546814735.8,286046995.7,N
1546814755.6,286046995.3,Y
1546814775.5,286046998.7,P
1546814795.3,286046997.4,P
1546814815.1,286046998.9,N
1546814835.9,286046997.4,Y
1546814855.7,286046998.3,P
1546814875.6,286047000.6,P
1546814895.4,286046998.9,N
1546814915.2,286046998.4,N
1546814935.1,286046999.3,N
1546814936.0,286046999.3,N
1546814955.8,286046998.2,N
1546814975.7,286046998.1,N
1546814995.5,286046998.9,N
1546815015.3,286047000.7,N
1546815035.2,286047000.9,N
1546815055.0,286046999.5,N
1546815055.9,286046999.5,N
1546815075.7,286046999.0,N
1546815095.6,286046996.8,Y
1546815145.5,286046999.1,E
1546815155.4,286046996.5,N
1546815175.2,286046998.5,P
1546815195.1,286047000.7,N
1546815196.0,286047000.7,N
1546815215.8,286047001.0,N
1546815235.6,286046998.2,N
1546815255.5,286047000.8,N
1546815275.3,286047000.8,N
1546815295.2,286047000.6,N
1546815315.9,286047000.2,N
1546815335.7,286046999.9,N
1546815355.6,286047002.6,N
1546815375.4,286047000.2,N
1546815395.2,286047000.7,N
1546815415.1,286047001.1,N
1546815416.0,286047001.1,N
1546815435.8,286046999.9,N
1546815455.7,286047000.4,N
1546815475.5,286047000.4,N
1546815495.3,286047000.9,N
1546815515.2,286047002.6,N
1546815535.0,286047000.6,N
1546815535.9,286047000.6,N
1546815555.8,286047000.3,N
1546815575.6,286046998.4,N
1546815595.4,286046996.9,N
